OneWeb SL0161

operational
NORAD ID: 48053 Int'l Des: 2021-025 Owner: ONEWEBN Country: UK Constellation: oneweb
LEOCIRCULARPOLARONEWEB_TYPE

Über OneWeb SL0161

Beschreibung wird geladen...

Live-Position

3D-Globus wird geladen...

Nächste Überflüge

Höhenverlauf

Altitude vs Time

uPlot chart will show altitude changes over time

Zweizeiliger Elementsatz

1 48053U 21025M 26035.08669375 .00000338 00000-0 89138-3 0 9996
2 48053 87.9027 346.6778 0001934 85.0729 275.0621 13.13469429236033
Epoch: 4. Feb. 2026 • Age: 7 hours

Aktueller Status

Höhe 1218.9 km
Geschwindigkeit 7.24 km/s
Subsatellitenpunkt -22.52°S, 95.92°W
Startdatum 25. März 2021
Alter 4.8 years
Typ internet

Technische Details

Klassifizierung Payload
Masse 148.00 kg
Trockenmasse 140.00 kg
Gesamtmasse 148.00 kg
Länge 1.30 m
Durchmesser 1.00 m
Spannweite 5.00 m
Form Trapezoid+2 pan
Hersteller ONEWUS
Bus-Typ ARROW
Phasenstatus In Orbit
Besitzer/Staat ONEWEBN/UK

Große Konstellationen

Loading constellations...